Wind_Speed
8 9 8 10 10 11 10 12 11 10 11 11 9 10 13 13 13 11 11 10 11 10 7 5 6 6 4 5 8 10 9 9 9 9 8 7 5 3 2 2 2 3 3
6 6 8 9 8 10 10 12 12 14 13 13 12 12 10 10 11 11 11 10 10 9 8 8 7 7 6 6 5 7 8 10 9 11 13 11 9 7 5 4 3 4 4
7 8 8 8 9 10 12 12 11 10 11 10 13 13 11 10 9 9 9 9 7 7 8 7 9 9 8 7 6 5 5 7 12 12 16 13 11 11 9 7 6 5 5
8 7 7 9 10 11 11 12 13 15 15 14 13 13 12 9 9 8 8 10 9 8 9 10 8 9 9 8 8 7 7 5 7 5 16 15 12 10 11 11 10 8 6
6 7 7 8 10 12 13 14 16 17 19 18 17 15 13 10 8 9 7 8 10 9 10 9 8 10 10 9 9 7 7 9 6 3 9 14 15 14 15 15 14 12 10
5 6 8 8 10 10 10 11 12 13 14 16 17 16 14 12 11 8 9 10 10 11 12 11 10 11 9 8 6 5 5 5 9 10 5 3 5 14 22 20 17 14 13
3 5 9 8 7 7 8 9 11 13 14 15 18 19 15 11 11 11 9 9 10 11 11 11 11 11 8 8 5 6 6 4 4 4 4 5 7 9 11 21 22 17 15
6 8 6 6 6 8 10 12 17 20 20 19 19 18 17 14 13 10 10 11 11 9 11 11 12 12 11 9 9 10 11 10 9 6 6 5 5 6 9 10 24 21 19
8 8 6 7 8 11 15 16 18 21 24 23 21 18 14 12 13 16 12 10 13 12 8 11 13 12 13 13 13 13 13 14 13 11 9 8 7 5 5 5 9 19 20
8 7 4 4 8 12 15 16 19 19 26 24 13 14 15 11 9 12 14 15 12 14 13 9 12 14 14 14 16 15 15 14 13 14 11 9 8 8 8 6 7 11 13
7 5 1 5 11 15 16 16 15 24 22 24 23 18 14 10 9 10 11 13 16 15 14 14 13 13 16 17 16 17 19 21 20 16 14 11 10 9 8 9 10 10 10
3 2 3 6 11 13 15 15 16 19 25 27 26 25 17 12 10 8 10 13 13 16 18 16 15 18 21 22 21 19 19 21 22 19 16 16 14 14 14 11 13 13 12
4 2 4 9 11 11 12 15 17 20 24 26 27 26 24 17 17 17 15 14 15 16 14 15 18 19 25 27 25 23 20 21 23 22 21 19 20 18 16 16 16 17 17
3 2 6 8 11 13 14 15 17 22 25 27 25 25 26 21 17 15 19 20 23 23 16 13 16 17 20 27 25 25 27 25 20 22 23 26 28 26 25 23 20 20 20
5 4 4 8 9 8 11 15 19 21 24 26 26 26 25 24 19 20 21 19 20 22 21 20 19 19 19 22 26 25 26 28 29 28 25 28 29 30 29 28 28 27 27
5 5 5 6 5 8 9 18 21 24 25 26 24 26 29 25 23 22 21 21 22 24 26 26 27 19 16 15 18 25 27 28 30 34 37 37 36 36 36 35 37 36 33
6 6 4 3 4 8 11 17 21 25 24 25 27 27 27 27 27 27 27 27 26 24 26 29 29 31 27 23 16 13 21 27 32 34 34 36 36 37 40 41 40 39 38
10 9 6 3 5 8 10 15 18 22 24 26 28 31 30 29 30 31 30 30 31 30 29 30 30 31 32 33 30 28 22 19 24 28 33 39 39 38 38 40 39 39 38
14 12 8 6 5 7 11 16 17 21 23 27 29 32 35 31 30 30 33 32 33 34 32 30 29 31 33 36 37 38 37 34 34 30 30 34 39 40 38 34 33 30 31
18 15 11 12 13 11 15 16 20 23 26 28 31 35 37 35 34 34 34 35 33 36 35 33 33 33 34 34 36 38 41 43 44 46 39 37 39 45 46 46 47 44 41
23 24 23 19 18 15 15 19 23 26 30 33 36 40 44 43 40 37 36 35 36 37 37 35 37 39 40 40 40 41 42 45 50 50 46 41 40 44 49 53 59 61 61
27 27 25 23 21 20 21 23 26 26 31 34 40 46 46 45 42 40 36 36 36 34 37 40 40 37 42 46 48 49 48 50 50 51 53 48 48 46 49 48 54 58 47
30 30 27 26 25 25 24 26 28 30 33 34 39 44 48 42 38 37 36 34 35 36 38 40 42 46 48 50 53 55 52 52 53 52 56 55 53 49 46 43 44 46 46
34 34 32 28 27 26 25 29 33 33 34 36 40 43 47 41 34 37 39 40 39 41 42 43 45 49 49 55 59 57 54 54 52 52 56 56 52 52 47 45 43 44 45
35 33 33 31 28 28 30 37 40 26 39 35 39 41 44 41 40 41 44 46 47 45 46 51 49 51 51 54 53 52 49 50 48 50 49 50 49 49 47 47 45 46 47
32 33 32 34 36 31 35 34 38 41 43 41 41 42 46 47 42 41 44 47 46 49 49 50 50 53 53 54 57 64 46 42 44 46 47 46 44 45 42 40 42 44 45
Wind_Direction
77 75 55 54 47 35 21 25 20 19 14 23 20 19 18 8 13 12 13 11 20 20 14 5 22 27 351 303 276 261 265 274 273 264 232 228 222 241 235 203 211 249 229
78 67 58 58 40 35 22 9 5 0 1 355 359 9 14 4 3 1 353 2 358 4 5 357 1 3 10 14 321 283 272 259 259 261 242 226 219 218 226 246 228 241 270
68 53 41 38 36 24 18 5 0 345 349 354 346 354 5 358 349 358 339 340 342 337 340 350 353 346 346 350 353 321 295 280 275 253 230 229 225 231 226 231 247 242 246
50 44 36 20 11 7 360 358 349 342 348 351 343 343 341 346 342 353 352 331 319 327 332 346 348 344 345 345 333 351 327 330 0 272 219 224 229 239 246 240 239 243 238
27 18 12 14 356 353 353 351 348 347 353 344 342 340 330 331 335 333 356 336 322 329 323 331 335 335 334 342 337 343 6 16 341 213 222 237 238 239 245 246 242 239 236
8 355 342 351 349 349 347 343 344 341 347 343 341 334 335 322 321 330 346 334 326 324 325 324 327 330 324 337 330 345 354 15 21 1 11 243 270 251 245 246 245 244 243
330 354 313 337 332 338 335 326 316 318 322 330 333 332 329 321 315 326 329 325 317 315 316 313 318 320 322 326 304 290 291 302 312 324 322 318 305 294 278 252 242 246 252
321 311 312 299 316 318 324 323 330 327 321 311 319 309 320 328 322 312 313 312 310 308 305 307 307 310 310 299 291 301 298 296 289 280 282 278 280 284 295 279 231 233 245
287 280 285 314 323 348 349 349 340 331 323 308 299 315 303 306 308 306 305 302 299 304 309 302 300 302 304 302 291 288 292 289 285 276 270 277 277 275 297 312 232 243 256
261 267 271 333 1 0 350 343 347 358 355 357 313 315 305 297 289 290 294 299 301 306 306 298 298 301 301 299 298 286 279 275 276 284 277 272 286 299 291 272 260 255 261
262 261 211 331 345 339 341 345 336 342 6 11 5 334 311 289 299 300 292 289 299 294 292 292 289 288 292 294 291 289 280 273 274 268 259 247 255 269 280 275 265 267 277
228 203 4 327 334 330 334 340 336 359 0 5 5 12 355 314 303 309 306 298 295 291 298 305 303 299 300 305 299 287 277 276 272 265 261 252 249 251 250 247 254 254 253
184 141 324 329 327 337 339 335 345 353 358 356 360 5 6 343 310 297 306 311 306 295 290 292 304 299 301 301 301 297 281 275 269 262 264 258 253 253 245 235 240 250 256
197 322 341 319 326 342 344 354 358 351 351 350 348 351 357 350 336 316 324 305 312 318 298 296 304 314 314 305 302 294 288 284 280 275 272 269 268 271 264 259 254 251 258
225 305 313 328 342 17 15 8 355 356 356 343 342 344 345 348 342 338 330 321 317 318 321 319 310 306 313 306 306 304 291 283 277 275 270 269 269 273 268 272 273 275 280
244 258 295 332 23 12 4 9 8 3 2 356 344 342 340 334 339 333 333 336 335 325 314 314 313 309 297 290 298 300 304 297 287 280 280 282 282 277 274 272 274 277 278
256 223 266 305 1 1 357 7 356 -0 1 2 360 347 341 334 327 331 329 328 323 319 312 311 311 312 317 319 317 298 297 293 297 293 279 275 272 271 270 269 273 276 276
253 256 265 305 313 328 334 345 350 349 343 349 352 352 337 326 323 321 318 318 319 317 315 311 306 311 310 311 311 311 311 291 279 283 284 281 269 268 272 273 272 271 272
237 242 246 278 301 319 323 332 339 340 341 341 341 345 349 331 320 318 314 315 317 316 312 312 311 310 307 307 307 306 306 307 306 294 288 278 271 272 276 271 275 275 270
235 241 252 264 276 290 312 324 326 329 338 339 339 339 338 337 331 323 317 314 314 315 311 310 305 302 296 300 298 295 298 293 301 303 296 282 277 269 270 272 271 270 271
242 247 257 267 269 286 305 312 315 324 330 334 335 330 330 328 327 323 314 314 316 311 310 304 307 306 302 301 296 292 291 292 292 293 291 286 280 278 276 270 260 262 260
257 258 261 263 271 282 296 305 314 318 322 327 327 328 326 322 318 319 312 310 310 305 303 301 298 299 294 291 288 284 281 284 294 297 294 295 290 281 278 278 277 276 275
257 254 256 262 270 282 295 304 307 313 309 316 327 330 328 323 318 316 316 312 310 305 301 291 290 295 294 291 291 291 291 288 288 291 289 293 292 294 288 279 276 276 272
257 261 256 262 271 284 293 302 299 304 311 309 320 322 330 325 323 317 317 314 309 305 300 295 291 293 293 294 291 289 288 290 293 294 289 289 293 291 289 284 277 272 269
256 258 260 263 271 282 291 299 319 296 313 310 317 318 323 317 317 315 313 313 311 311 292 300 296 294 290 299 292 292 293 299 303 293 291 292 290 287 285 283 278 274 272
259 258 259 262 262 268 281 301 290 305 307 310 311 317 317 311 310 311 311 311 306 302 300 296 297 293 294 294 281 300 308 299 299 293 287 286 284 283 282 277 275 275 277
Height
5929 5929 5928 5927 5927 5925 5926 5925 5924 5924 5924 5923 5921 5919 5917 5914 5912 5911 5909 5907 5907 5906 5906 5906 5904 5902 5902 5901 5901 5901 5901 5901 5902 5902 5902 5903 5903 5904 5904 5904 5904 5905 5905
5931 5930 5930 5929 5928 5928 5928 5926 5926 5924 5925 5924 5923 5921 5919 5916 5913 5911 5908 5908 5907 5907 5907 5905 5904 5903 5902 5899 5900 5899 5899 5898 5899 5899 5901 5901 5901 5902 5903 5903 5903 5903 5904
5930 5931 5930 5931 5930 5929 5928 5927 5926 5924 5923 5922 5921 5920 5919 5917 5914 5913 5911 5909 5908 5907 5905 5904 5904 5902 5901 5900 5899 5898 5896 5896 5896 5896 5897 5899 5899 5900 5901 5902 5902 5902 5903
5931 5932 5932 5931 5930 5929 5927 5927 5926 5923 5921 5919 5917 5916 5915 5915 5914 5913 5912 5910 5908 5907 5905 5904 5902 5901 5900 5899 5898 5896 5892 5891 5892 5892 5895 5896 5897 5898 5899 5899 5900 5901 5901
5932 5933 5933 5932 5931 5929 5928 5926 5923 5921 5920 5918 5916 5915 5913 5912 5913 5911 5911 5909 5907 5906 5904 5902 5902 5900 5899 5898 5897 5896 5894 5891 5892 5891 5893 5894 5895 5895 5896 5897 5898 5898 5899
5933 5932 5932 5931 5929 5928 5927 5925 5923 5921 5919 5916 5915 5914 5912 5910 5909 5910 5908 5906 5905 5904 5903 5901 5900 5899 5897 5897 5896 5895 5894 5894 5892 5891 5890 5891 5892 5892 5893 5894 5895 5896 5897
5933 5932 5930 5929 5928 5927 5926 5924 5922 5919 5917 5914 5911 5910 5911 5908 5908 5907 5907 5905 5904 5903 5902 5900 5899 5897 5896 5895 5895 5894 5893 5892 5892 5891 5892 5890 5890 5890 5889 5890 5892 5894 5895
5930 5930 5929 5928 5927 5925 5924 5923 5920 5917 5915 5912 5911 5907 5906 5906 5903 5904 5905 5905 5903 5902 5900 5899 5897 5896 5894 5893 5893 5893 5892 5891 5890 5889 5889 5889 5889 5887 5886 5884 5886 5889 5891
5929 5929 5928 5927 5927 5925 5923 5921 5919 5916 5912 5908 5906 5906 5904 5904 5902 5900 5902 5902 5900 5900 5900 5898 5896 5894 5893 5892 5891 5891 5890 5889 5889 5887 5886 5886 5886 5885 5884 5883 5883 5887 5888
5928 5928 5927 5926 5925 5923 5921 5919 5916 5913 5909 5903 5900 5901 5900 5900 5900 5899 5897 5896 5897 5896 5896 5895 5893 5891 5891 5890 5889 5889 5888 5887 5887 5886 5885 5884 5883 5883 5883 5882 5883 5883 5884
5925 5925 5925 5926 5923 5921 5920 5917 5914 5911 5907 5902 5898 5896 5895 5896 5896 5896 5895 5894 5891 5891 5891 5890 5890 5889 5887 5886 5886 5886 5885 5884 5883 5882 5882 5881 5881 5880 5880 5880 5880 5880 5880
5922 5924 5925 5924 5923 5921 5918 5915 5912 5907 5904 5901 5898 5894 5892 5893 5893 5893 5892 5892 5892 5889 5886 5885 5886 5885 5883 5882 5882 5880 5879 5878 5878 5879 5878 5878 5878 5877 5877 5876 5877 5876 5876
5922 5924 5923 5921 5920 5918 5916 5913 5910 5906 5902 5900 5897 5894 5892 5890 5889 5888 5889 5889 5888 5887 5885 5885 5882 5880 5877 5875 5875 5874 5874 5873 5872 5872 5873 5872 5872 5873 5872 5872 5872 5872 5872
5920 5921 5920 5918 5917 5915 5913 5910 5907 5903 5900 5898 5895 5892 5890 5889 5887 5886 5884 5884 5881 5880 5880 5880 5879 5877 5875 5870 5869 5868 5867 5867 5867 5866 5867 5867 5866 5866 5866 5866 5866 5865 5865
5918 5918 5917 5916 5914 5912 5910 5907 5905 5902 5899 5895 5893 5891 5889 5887 5885 5884 5881 5879 5876 5873 5871 5872 5872 5871 5868 5865 5862 5862 5861 5860 5859 5858 5859 5858 5858 5858 5856 5856 5856 5855 5854
5915 5914 5913 5913 5911 5909 5907 5905 5903 5899 5896 5893 5890 5887 5885 5883 5882 5881 5878 5876 5873 5870 5867 5866 5864 5864 5863 5861 5859 5855 5853 5852 5850 5850 5850 5848 5848 5847 5847 5847 5846 5846 5846
5910 5912 5910 5909 5907 5906 5905 5903 5900 5897 5894 5891 5890 5886 5883 5880 5877 5875 5873 5872 5870 5868 5865 5860 5857 5855 5854 5852 5849 5849 5847 5845 5842 5839 5838 5837 5836 5836 5836 5836 5835 5835 5836
5905 5906 5906 5905 5904 5903 5901 5899 5897 5895 5892 5889 5885 5884 5880 5876 5873 5871 5867 5866 5863 5861 5860 5857 5853 5849 5846 5843 5842 5839 5838 5837 5836 5832 5830 5828 5827 5825 5825 5824 5824 5824 5823
5902 5903 5903 5901 5900 5898 5896 5895 5893 5891 5888 5885 5882 5880 5877 5872 5868 5865 5861 5858 5856 5852 5850 5849 5846 5843 5839 5835 5832 5829 5828 5825 5823 5821 5820 5817 5815 5815 5814 5813 5812 5810 5810
5899 5899 5898 5896 5895 5893 5891 5889 5888 5886 5884 5881 5877 5874 5872 5868 5863 5858 5853 5849 5847 5843 5839 5837 5835 5833 5830 5828 5825 5822 5819 5815 5812 5808 5806 5805 5804 5801 5801 5801 5800 5800 5799
5894 5893 5893 5891 5889 5887 5885 5884 5882 5880 5877 5874 5871 5868 5864 5860 5856 5851 5847 5843 5840 5835 5832 5829 5827 5824 5820 5817 5814 5810 5807 5802 5800 5795 5792 5790 5789 5788 5787 5786 5785 5783 5781
5886 5886 5885 5884 5883 5881 5880 5877 5875 5874 5870 5868 5864 5860 5856 5850 5846 5842 5838 5834 5831 5828 5824 5820 5816 5814 5809 5805 5801 5798 5794 5791 5788 5781 5778 5776 5772 5772 5771 5769 5768 5765 5765
5880 5881 5880 5879 5877 5875 5873 5872 5869 5866 5864 5861 5856 5851 5846 5841 5835 5832 5829 5826 5824 5821 5816 5812 5808 5803 5799 5792 5789 5783 5780 5776 5773 5768 5764 5763 5757 5755 5753 5751 5748 5748 5748
5872 5872 5872 5871 5870 5868 5866 5864 5861 5860 5857 5853 5848 5844 5836 5831 5826 5823 5820 5817 5814 5810 5805 5801 5796 5790 5784 5780 5775 5769 5766 5762 5759 5753 5748 5748 5743 5739 5737 5734 5732 5730 5728
5864 5864 5864 5862 5861 5859 5856 5855 5855 5852 5849 5843 5838 5833 5828 5824 5818 5814 5811 5806 5802 5798 5794 5787 5783 5778 5772 5766 5759 5756 5751 5747 5743 5740 5731 5730 5727 5725 5723 5720 5716 5712 5710
5857 5856 5855 5852 5850 5848 5846 5845 5844 5841 5839 5835 5830 5823 5820 5816 5810 5806 5801 5795 5790 5785 5781 5773 5768 5763 5758 5752 5746 5739 5735 5732 5726 5726 5719 5717 5713 5709 5710 5708 5703 5699 5696